Location: ??????
(33.3472°N, 35.4764°E)
Time: 00:41:06
(UTC+00:00)

CZ-2D R/B - Pass Details

Date: 21 August 2019
Orbit: 792 x 845 km, 98.6° (Epoch: 20 September)

Event Time Altitude Azimuth Distance (km) Brightness Sun altitude
Rises 00:01:56 0° 1° (N) 3,396 6.0 -33.4°
Reaches altitude 10° 00:04:30 10° 353° (N) 2,451 5.0 -33.1°
Enters shadow 00:06:55 23° 334° (NNW) 1,691 3.9 -32.7°
